FW7384 Weather Reports


Display with metric or nautical units.
time (UTC)temp
F
wind
direction
speed
MPH
gust
MPH
rain 1hr
in
rain 24hr
in
rain mn
in
humidity
%
barometer
mb
20260510065003 50 172 3.0 6.0 0.00 0.00 0.00 53 1014.9
20260510064503 49 159 2.0 6.0 0.00 0.00 0.00 55 1014.8
20260510064003 49 148 3.0 7.0 0.00 0.00 0.00 59 1014.9
20260510063503 48 139 4.0 8.0 0.00 0.00 0.00 60 1014.8
20260510063003 48 131 5.0 8.0 0.00 0.00 0.00 61 1014.8
20260510062503 48 133 4.0 9.0 0.00 0.00 0.00 61 1014.9
20260510062003 47 135 4.0 9.0 0.00 0.00 0.00 63 1015.1
20260510061503 47 151 3.0 6.0 0.00 0.00 0.00 61 1015.2
20260510061003 47 175 2.0 6.0 0.00 0.00 0.00 64 1015.3
20260510060503 46 166 3.0 6.0 0.00 0.00 0.00 64 1015.3
20260510060003 46 140 3.0 6.0 0.00 0.00 0.00 67 1015.3
20260510055503 46 155 2.0 5.0 0.00 0.00 0.00 67 1015.6
20260510055003 46 168 2.0 5.0 0.00 0.00 0.00 69 1015.6
20260510054503 45 129 2.0 5.0 0.00 0.00 0.00 70 1015.6
20260510054003 44 108 2.0 4.0 0.00 0.00 0.00 71 1015.7
20260510053712 44 115 2.0 4.0 0.00 0.00 0.00 72 1015.6
20260510053003 42 102 1.0 4.0 0.00 0.00 0.00 73 1015.5
20260510052503 41 79 0.0 2.0 0.00 0.00 0.00 75 1015.7
20260510052003 40 56 1.0 2.0 0.00 0.00 0.00 78 1015.6
20260510051503 40 46 1.0 2.0 0.00 0.00 0.00 78 1015.9
20260510051003 39 38 0.0 2.0 0.00 0.00 0.00 79 1015.8
20260510050503 38 36 1.0 3.0 0.00 0.00 0.00 82 1015.9
20260510050003 38 30 2.0 4.0 0.00 0.00 0.00 80 1015.9
20260510045715 37 26 2.0 4.0 0.00 0.00 0.00 82 1016.0
20260510045003 35 32 2.0 4.0 0.00 0.00 0.00 84 1016.1
20260510044503 34 35 2.0 3.0 0.00 0.00 0.00 86 1016.1
20260510044003 33 33 1.0 2.0 0.00 0.00 0.00 87 1016.2
20260510043503 33 37 2.0 3.0 0.00 0.00 0.00 88 1016.4
20260510043213 32 45 2.0 3.0 0.00 0.00 0.00 87 1016.2
20260510042503 32 46 2.0 3.0 0.00 0.00 0.00 88 1016.1
20260510042003 32 45 1.0 3.0 0.00 0.00 0.00 88 1016.2
20260510041503 32 44 1.0 2.0 0.00 0.00 0.00 89 1016.3
20260510041003 32 40 1.0 3.0 0.00 0.00 0.00 88 1016.3
20260510040503 31 45 1.0 3.0 0.00 0.00 0.00 89 1016.2
20260510040003 31 38 2.0 3.0 0.00 0.00 0.00 89 1016.5
20260510035503 31 31 2.0 3.0 0.00 0.00 0.00 90 1016.2
20260510035003 31 30 2.0 3.0 0.00 0.00 0.00 89 1016.5
20260510034503 31 32 2.0 3.0 0.00 0.00 0.00 88 1016.5
20260510034003 31 38 2.0 3.0 0.00 0.00 0.00 88 1016.6
20260510033503 31 28 1.0 2.0 0.00 0.00 0.00 88 1016.8
20260510033003 32 23 2.0 3.0 0.00 0.00 0.00 89 1016.8
20260510032714 32 23 2.0 3.0 0.00 0.00 0.00 89 1016.9
20260510032003 31 25 2.0 3.0 0.00 0.00 0.00 91 1016.8
20260510031503 31 30 2.0 3.0 0.00 0.00 0.00 91 1016.9
20260510031003 31 32 1.0 2.0 0.00 0.00 0.00 89 1016.9
20260510030503 31 35 1.0 2.0 0.00 0.00 0.00 89 1017.0
20260510030003 31 38 0.0 2.0 0.00 0.00 0.00 93 1016.9
20260510025503 30 53 0.0 2.0 0.00 0.00 0.00 94 1017.1
20260510025004 31 53 0.0 2.0 0.00 0.00 0.00 91 1017.2
20260510024503 31 42 0.0 2.0 0.00 0.00 0.00 93 1017.2
20260510024003 31 39 0.0 2.0 0.00 0.00 0.00 95 1017.1
20260510023503 31 41 1.0 2.0 0.00 0.00 0.00 92 1017.1
20260510023003 31 42 1.0 2.0 0.00 0.00 0.00 91 1017.1
20260510022503 31 36 1.0 2.0 0.00 0.00 0.00 90 1017.3
20260510022212 31 36 1.0 2.0 0.00 0.00 0.00 90 1017.2
20260510021503 31 40 1.0 3.0 0.00 0.00 0.00 90 1017.4
20260510021003 32 40 1.0 3.0 0.00 0.00 0.00 87 1017.3
20260510020503 32 35 1.0 2.0 0.00 0.00 0.00 92 1017.4
20260510020214 33 29 1.0 2.0 0.00 0.00 0.00 91 1017.5
20260510015503 32 33 2.0 3.0 0.00 0.00 0.00 91 1017.4
20260510015003 31 41 1.0 3.0 0.00 0.00 0.00 91 1017.6
20260510014713 32 42 1.0 2.0 0.00 0.00 0.00 90 1017.7
20260510014003 32 46 1.0 2.0 0.00 0.00 0.00 90 1017.9
20260510013503 32 45 1.0 2.0 0.00 0.00 0.00 89 1017.8
20260510013214 32 45 1.0 3.0 0.00 0.00 0.00 89 1017.9
20260510012504 33 37 1.0 3.0 0.00 0.00 0.00 90 1017.9
20260510012003 33 34 1.0 3.0 0.00 0.00 0.00 89 1018.1
20260510011503 33 36 1.0 3.0 0.00 0.00 0.00 90 1018.1
20260510011003 32 38 2.0 3.0 0.00 0.00 0.00 89 1018.1
20260510010503 32 35 2.0 3.0 0.00 0.00 0.00 89 1018.3
20260510010003 32 30 2.0 3.0 0.00 0.00 0.00 88 1018.2
20260510005713 33 30 2.0 3.0 0.00 0.00 0.00 87 1018.3
20260510005003 33 26 2.0 3.0 0.00 0.00 0.00 86 1018.3
20260510004503 34 28 2.0 3.0 0.00 0.00 0.00 85 1018.3
20260510004003 34 30 2.0 3.0 0.00 0.00 0.00 86 1018.4
20260510003503 34 29 2.0 3.0 0.00 0.00 0.00 86 1018.3
20260510003004 34 32 1.0 3.0 0.00 0.00 0.00 87 1018.5
20260510002503 34 35 1.0 3.0 0.00 0.00 0.00 87 1018.6
20260510002004 34 38 1.0 2.0 0.00 0.00 0.00 87 1018.5
20260510001503 34 32 1.0 2.0 0.00 0.00 0.00 88 1018.8
20260510001003 34 32 1.0 2.0 0.00 0.00 0.00 87 1018.6
20260510000503 34 36 2.0 2.0 0.00 0.00 0.00 85 1018.8
20260510000003 35 38 2.0 2.0 0.00 0.00 0.00 85 1018.9
20260509235503 35 39 1.0 2.0 0.00 0.00 0.00 85 1018.9
20260509235003 35 37 1.0 3.0 0.00 0.00 0.00 85 1018.9
20260509234712 35 43 1.0 3.0 0.00 0.00 0.00 85 1018.9
20260509234213 35 38 1.0 3.0 0.00 0.00 0.00 86 1019.0
20260509233503 35 26 1.0 3.0 0.00 0.00 0.00 87 1019.0
20260509233213 35 26 2.0 3.0 0.00 0.00 0.00 86 1019.1
20260509232503 35 34 1.0 3.0 0.00 0.00 0.00 85 1019.2
20260509232003 35 48 1.0 2.0 0.00 0.00 0.00 84 1019.0
20260509231714 35 50 0.0 2.0 0.00 0.00 0.00 84 1019.1
20260509231213 36 37 1.0 2.0 0.00 0.00 0.00 83 1019.2
20260509230503 37 37 1.0 3.0 0.00 0.00 0.00 82 1019.2
20260509230003 37 35 2.0 3.0 0.00 0.00 0.00 82 1019.3
20260509225503 37 30 2.0 3.0 0.00 0.00 0.00 81 1019.2
20260509225003 38 24 2.0 3.0 0.00 0.00 0.00 81 1019.4
20260509224714 38 21 2.0 3.0 0.00 0.00 0.00 83 1019.4
20260509224004 37 25 2.0 3.0 0.00 0.00 0.00 84 1019.6
20260509223503 37 36 1.0 2.0 0.00 0.00 0.00 84 1019.3
20260509223003 37 54 0.0 2.0 0.00 0.00 0.00 83 1019.5
20260509222503 37 61 0.0 2.0 0.00 0.00 0.00 81 1019.3
20260509222003 38 51 1.0 2.0 0.00 0.00 0.00 80 1019.3
20260509221503 38 42 1.0 2.0 0.00 0.00 0.00 80 1019.5
20260509221003 38 38 1.0 2.0 0.00 0.00 0.00 80 1019.4
20260509220503 38 46 1.0 2.0 0.00 0.00 0.00 78 1019.5
20260509220004 39 46 1.0 2.0 0.00 0.00 0.00 76 1019.4
20260509215503 40 37 1.0 2.0 0.00 0.00 0.00 76 1019.5
20260509215003 40 33 1.0 3.0 0.00 0.00 0.00 78 1019.3
20260509214503 40 30 2.0 3.0 0.00 0.00 0.00 77 1019.6
20260509214003 40 30 2.0 3.0 0.00 0.00 0.00 75 1019.5
20260509213503 41 47 1.0 3.0 0.00 0.00 0.00 76 1019.5
20260509213003 41 51 1.0 2.0 0.00 0.00 0.00 75 1019.5
20260509212503 41 36 1.0 2.0 0.00 0.00 0.00 74 1019.6
20260509212003 42 30 1.0 2.0 0.00 0.00 0.00 73 1019.7
20260509211503 42 29 1.0 2.0 0.00 0.00 0.00 72 1019.8
20260509211003 42 0 0.0 0.0 0.00 0.00 0.00 71 1019.6
20260509210503 43 135 0.0 1.0 0.00 0.00 0.00 70 1019.6
20260509210003 43 104 0.0 1.0 0.00 0.00 0.00 70 1019.7
20260509205503 43 62 0.0 3.0 0.00 0.00 0.00 69 1019.6
20260509205004 44 43 1.0 3.0 0.00 0.00 0.00 68 1019.5
20260509204503 44 33 2.0 3.0 0.00 0.00 0.00 67 1019.5
20260509204003 45 32 1.0 2.0 0.00 0.00 0.00 66 1019.6
20260509203503 46 30 0.0 1.0 0.00 0.00 0.00 65 1019.6
20260509203003 46 0 0.0 0.0 0.00 0.00 0.00 61 1019.7
20260509202503 47 195 0.0 1.0 0.00 0.00 0.00 61 1019.4
20260509202003 47 175 0.0 1.0 0.00 0.00 0.00 60 1019.5
20260509201503 48 161 0.0 1.0 0.00 0.00 0.00 59 1019.5
20260509201003 48 172 0.0 1.0 0.00 0.00 0.00 58 1019.4
20260509200503 49 211 0.0 2.0 0.00 0.00 0.00 57 1019.6
20260509200003 49 213 0.0 2.0 0.00 0.00 0.00 56 1019.7
20260509195503 49 221 0.0 2.0 0.00 0.00 0.00 56 1019.5
20260509195214 50 224 0.0 2.0 0.00 0.00 0.00 55 1019.5
20260509194503 50 220 0.0 2.0 0.00 0.00 0.00 54 1019.6
20260509194003 51 219 0.0 2.0 0.00 0.00 0.00 53 1019.6
20260509193713 51 215 0.0 2.0 0.00 0.00 0.00 53 1019.5
20260509193003 52 213 0.0 2.0 0.00 0.00 0.00 51 1019.5
20260509192503 52 217 0.0 1.0 0.00 0.00 0.00 50 1019.5
20260509192003 53 209 0.0 2.0 0.00 0.00 0.00 49 1019.6
20260509191503 53 206 1.0 2.0 0.00 0.00 0.00 49 1019.4
20260509191214 53 210 1.0 2.0 0.00 0.00 0.00 48 1019.4
20260509190503 54 196 0.0 1.0 0.00 0.00 0.00 47 1019.3
20260509190003 54 190 0.0 3.0 0.00 0.00 0.00 46 1019.3
20260509185712 55 204 1.0 5.0 0.00 0.00 0.00 46 1019.3
20260509185003 55 216 1.0 6.0 0.00 0.00 0.00 45 1019.4
20260509184503 56 217 2.0 6.0 0.00 0.00 0.00 44 1019.4
20260509184003 56 228 2.0 5.0 0.00 0.00 0.00 43 1019.3
20260509183503 57 236 2.0 7.0 0.00 0.00 0.00 42 1019.4
20260509183213 57 231 3.0 7.0 0.00 0.00 0.00 42 1019.3
20260509182503 58 221 3.0 8.0 0.00 0.00 0.00 40 1019.1
20260509182003 59 199 2.0 8.0 0.00 0.00 0.00 33 1019.1
20260509181714 59 189 2.0 5.0 0.00 0.00 0.00 28 1019.0
20260509181003 59 194 2.0 5.0 0.00 0.00 0.00 26 1018.8
20260509180503 59 193 2.0 5.0 0.00 0.00 0.00 25 1019.2
20260509180003 60 183 2.0 5.0 0.00 0.00 0.00 25 1019.1
20260509175504 60 184 2.0 5.0 0.00 0.00 0.00 24 1018.9
20260509175003 60 186 3.0 5.0 0.00 0.00 0.00 23 1019.0
20260509174503 60 188 2.0 5.0 0.00 0.00 0.00 24 1019.0
20260509174003 60 205 2.0 4.0 0.00 0.00 0.00 23 1019.0
20260509173503 60 213 1.0 4.0 0.00 0.00 0.00 22 1019.0
20260509173003 60 196 2.0 5.0 0.00 0.00 0.00 23 1019.1
20260509172503 60 196 3.0 7.0 0.00 0.00 0.00 23 1019.2
20260509172003 60 209 3.0 7.0 0.00 0.00 0.00 24 1019.2
20260509171503 60 203 2.0 6.0 0.00 0.00 0.00 23 1019.2
20260509171003 61 176 3.0 4.0 0.00 0.00 0.00 23 1019.4
20260509170503 61 159 3.0 5.0 0.00 0.00 0.00 22 1019.3
20260509170003 61 175 3.0 6.0 0.00 0.00 0.00 23 1019.3
20260509165503 61 185 4.0 8.0 0.00 0.00 0.00 23 1019.3
20260509165003 61 192 3.0 8.0 0.00 0.00 0.00 22 1019.4
20260509164503 61 204 2.0 6.0 0.00 0.00 0.00 23 1019.6
20260509164003 61 222 2.0 5.0 0.00 0.00 0.00 22 1019.5
20260509163504 62 216 2.0 4.0 0.00 0.00 0.00 21 1019.5
20260509163003 62 192 3.0 8.0 0.00 0.00 0.00 20 1019.4
20260509162503 62 192 3.0 8.0 0.00 0.00 0.00 20 1019.8
20260509162003 62 205 3.0 6.0 0.00 0.00 0.00 21 1019.7
20260509161503 62 202 3.0 7.0 0.00 0.00 0.00 21 1019.7
20260509161003 62 185 3.0 7.0 0.00 0.00 0.00 21 1019.8
20260509160503 62 189 3.0 8.0 0.00 0.00 0.00 21 1019.7
20260509160003 62 204 4.0 8.0 0.00 0.00 0.00 21 1019.9
20260509155503 62 227 3.0 6.0 0.00 0.00 0.00 21 1020.0
20260509155003 62 187 3.0 7.0 0.00 0.00 0.00 21 1020.0
20260509154503 62 155 4.0 8.0 0.00 0.00 0.00 22 1020.0
20260509154004 62 154 4.0 8.0 0.00 0.00 0.00 20 1020.1
20260509153503 62 164 3.0 9.0 0.00 0.00 0.00 21 1020.2
20260509153004 62 175 4.0 9.0 0.00 0.00 0.00 20 1020.4
20260509152503 62 168 4.0 10.0 0.00 0.00 0.00 21 1020.1
20260509152003 62 136 4.0 10.0 0.00 0.00 0.00 21 1020.4
20260509151503 62 132 3.0 7.0 0.00 0.00 0.00 20 1020.4
20260509151003 62 179 2.0 6.0 0.00 0.00 0.00 20 1020.4
20260509150713 62 181 3.0 6.0 0.00 0.00 0.00 21 1020.4
20260509150003 62 138 5.0 9.0 0.00 0.00 0.00 21 1020.5
20260509145503 62 107 3.0 8.0 0.00 0.00 0.00 22 1020.6
20260509145214 61 114 3.0 7.0 0.00 0.00 0.00 21 1020.5
20260509144503 62 189 3.0 6.0 0.00 0.00 0.00 21 1020.6
20260509144004 61 8 3.0 6.0 0.00 0.00 0.00 22 1020.7
20260509143503 61 115 4.0 6.0 0.00 0.00 0.00 20 1020.8
20260509143003 61 187 4.0 7.0 0.00 0.00 0.00 21 1020.9
20260509142503 62 200 3.0 7.0 0.00 0.00 0.00 20 1021.2
20260509142214 62 204 3.0 7.0 0.00 0.00 0.00 20 1021.1
20260509141503 62 200 4.0 8.0 0.00 0.00 0.00 20 1021.3
20260509141214 62 205 4.0 8.0 0.00 0.00 0.00 20 1021.2
20260509140713 62 216 3.0 8.0 0.00 0.00 0.00 20 1021.2
20260509140004 61 250 3.0 8.0 0.00 0.00 0.00 19 1021.4
20260509135503 61 211 3.0 8.0 0.00 0.00 0.00 19 1021.5
20260509135003 62 179 4.0 10.0 0.00 0.00 0.00 19 1021.6
20260509134713 62 176 4.0 10.0 0.00 0.00 0.00 18 1021.6
20260509134213 61 159 4.0 10.0 0.00 0.00 0.00 19 1021.6
20260509133503 62 185 3.0 9.0 0.00 0.00 0.00 19 1021.7
20260509133003 61 294 3.0 7.0 0.00 0.00 0.00 19 1021.7
20260509132503 61 185 3.0 7.0 0.00 0.00 0.00 19 1021.8
20260509132003 61 151 3.0 7.0 0.00 0.00 0.00 18 1021.7
20260509131504 61 198 3.0 6.0 0.00 0.00 0.00 18 1021.8
20260509131003 61 251 3.0 6.0 0.00 0.00 0.00 19 1021.8
20260509130503 61 221 3.0 11.0 0.00 0.00 0.00 19 1022.0
20260509130003 61 196 4.0 11.0 0.00 0.00 0.00 19 1022.2
20260509125714 61 195 4.0 11.0 0.00 0.00 0.00 17 1022.1
20260509125003 61 232 3.0 7.0 0.00 0.00 0.00 20 1022.2
20260509124503 60 315 3.0 7.0 0.00 0.00 0.00 19 1022.3
20260509124003 60 346 3.0 8.0 0.00 0.00 0.00 18 1022.6
20260509123503 60 347 3.0 8.0 0.00 0.00 0.00 18 1022.2
20260509123003 59 15 4.0 8.0 0.00 0.00 0.00 20 1022.7
20260509122503 59 89 3.0 7.0 0.00 0.00 0.00 19 1022.4
20260509122003 60 139 3.0 7.0 0.00 0.00 0.00 18 1022.6
20260509121503 61 182 4.0 10.0 0.00 0.00 0.00 17 1022.7
20260509121003 60 169 4.0 10.0 0.00 0.00 0.00 18 1022.5
20260509120503 59 177 3.0 10.0 0.00 0.00 0.00 18 1022.7
20260509120004 59 234 3.0 6.0 0.00 0.00 0.00 18 1022.7
20260509115503 58 241 4.0 11.0 0.00 0.00 0.00 19 1022.7
20260509115003 58 182 5.0 11.0 0.00 0.00 0.00 17 1023.0
20260509114503 58 145 5.0 11.0 0.00 0.00 0.00 18 1022.9
20260509114003 59 150 3.0 10.0 0.00 0.00 0.00 17 1023.1
20260509113503 60 165 4.0 10.0 0.00 0.00 0.00 18 1023.1
20260509113003 59 182 4.0 9.0 0.00 0.00 0.00 17 1023.1
20260509112503 59 199 3.0 9.0 0.00 0.00 0.00 18 1023.2
20260509112003 59 167 3.0 9.0 0.00 0.00 0.00 17 1023.3
20260509111503 58 139 4.0 9.0 0.00 0.00 0.00 18 1023.3
20260509111003 58 139 5.0 9.0 0.00 0.00 0.00 17 1023.5
20260509110713 58 147 5.0 9.0 0.00 0.00 0.00 17 1023.4
20260509110003 59 167 2.0 8.0 0.00 0.00 0.00 18 1023.5
20260509105503 59 32 2.0 8.0 0.00 0.00 0.00 17 1023.5
20260509105212 58 42 2.0 8.0 0.00 0.00 0.00 18 1023.6
20260509104503 58 95 3.0 8.0 0.00 0.00 0.00 19 1023.6
20260509104003 58 114 3.0 12.0 0.00 0.00 0.00 18 1023.6
20260509103503 58 99 4.0 12.0 0.00 0.00 0.00 19 1023.6
20260509103003 58 153 3.0 6.0 0.00 0.00 0.00 18 1023.6
20260509102503 58 169 3.0 10.0 0.00 0.00 0.00 20 1023.6
20260509102003 57 125 4.0 10.0 0.00 0.00 0.00 21 1023.7
20260509101713 57 121 5.0 10.0 0.00 0.00 0.00 22 1023.7
20260509101003 57 316 4.0 8.0 0.00 0.00 0.00 24 1023.6
20260509100503 57 273 2.0 6.0 0.00 0.00 0.00 24 1023.7
20260509100004 58 259 1.0 6.0 0.00 0.00 0.00 27 1023.5
20260509095503 57 133 3.0 9.0 0.00 0.00 0.00 27 1023.8
20260509095003 56 96 3.0 9.0 0.00 0.00 0.00 25 1023.8
20260509094503 56 134 3.0 7.0 0.00 0.00 0.00 29 1024.0
20260509094003 56 140 4.0 8.0 0.00 0.00 0.00 27 1023.9
20260509093503 55 103 4.0 8.0 0.00 0.00 0.00 29 1024.0
20260509093003 55 15 3.0 6.0 0.00 0.00 0.00 30 1024.2
20260509092503 55 342 3.0 6.0 0.00 0.00 0.00 29 1024.2
20260509092214 56 291 2.0 6.0 0.00 0.00 0.00 30 1024.1
20260509091713 56 147 2.0 10.0 0.00 0.00 0.00 32 1024.2
20260509091003 55 99 4.0 11.0 0.00 0.00 0.00 33 1024.2
20260509090503 55 179 4.0 8.0 0.00 0.00 0.00 30 1024.1
20260509090003 55 196 4.0 8.0 0.00 0.00 0.00 32 1024.2
20260509085503 56 212 3.0 6.0 0.00 0.00 0.00 31 1024.3
20260509085214 56 213 2.0 4.0 0.00 0.00 0.00 30 1024.3
20260509084503 56 187 2.0 5.0 0.00 0.00 0.00 32 1024.3
20260509084003 54 156 4.0 6.0 0.00 0.00 0.00 31 1024.4
20260509083503 54 55 4.0 7.0 0.00 0.00 0.00 31 1024.4
20260509083003 54 341 2.0 7.0 0.00 0.00 0.00 30 1024.4
20260509082503 53 260 2.0 5.0 0.00 0.00 0.00 35 1024.5
20260509082003 53 38 2.0 5.0 0.00 0.00 0.00 32 1024.5
20260509081503 52 1 2.0 5.0 0.00 0.00 0.00 34 1024.5
20260509081004 52 323 2.0 4.0 0.00 0.00 0.00 33 1024.6
20260509080503 52 348 2.0 4.0 0.00 0.00 0.00 34 1024.5
20260509080003 51 323 3.0 5.0 0.00 0.00 0.00 34 1024.6
20260509075712 51 320 2.0 5.0 0.00 0.00 0.00 35 1024.5
20260509075003 51 233 2.0 5.0 0.00 0.00 0.00 34 1024.6
20260509074503 51 162 3.0 7.0 0.00 0.00 0.00 34 1024.5
20260509074213 51 127 3.0 7.0 0.00 0.00 0.00 34 1024.6
20260509073714 51 63 2.0 6.0 0.00 0.00 0.00 34 1024.7
20260509073003 51 152 2.0 5.0 0.00 0.00 0.00 33 1024.7
20260509072714 51 180 2.0 5.0 0.00 0.00 0.00 33 1024.8
20260509072003 52 176 2.0 4.0 0.00 0.00 0.00 34 1024.7
20260509071714 53 174 2.0 4.0 0.00 0.00 0.00 33 1024.9
20260509071003 51 217 2.0 4.0 0.00 0.00 0.00 34 1025.0
20260509070503 50 1 2.0 5.0 0.00 0.00 0.00 34 1024.9
20260509070003 50 120 3.0 7.0 0.00 0.00 0.00 34 1025.0
20260509065503 49 131 3.0 7.0 0.00 0.00 0.00 34 1025.1